Weather in Kocevje

Slovenia     45°38′35″N   14°51′38″E
В апреле 2022 года жителям России запретили посещать сайт meteo.paraplan.net по решению Генеральной прокуратуры. Аудитория сайта уменьшилась в 10 раз. Владельцы сайта не видят смысла в поддержке погодного сервера в таких условиях. Сайт будет закрыт в октябре.
temp.,
°C
wind,
m/s
gust,
m/s
humid.,
%
clouds,
%
prec.,
mm/h
press.,
hPa
HPBL,
m
25 september, sun
sun2523:00+11s1297100 0.6 101663
02:00+10sw1196100 1.0 101630
05:00+10se1195100 0.2 101445
08:00+10se2496100 0.2 1014212
11:00+11se2595100 0.2 1014339
14:00+11ese1297100 0.6 1013184
17:00+11ese1299100 1.2 1012127
20:00+12se0199100 1.8 101133
26 september, mon
mon2623:00+12wsw1199100 2.1 101136
02:00+11wsw0098100 2.9 101014
05:00+11s1199100 0.2 100913
08:00+11nw0098100 0.3 100942
11:00+15ne1188100 0.4 1009549
14:00+15nnw0185100 1.6 1007527
17:00+14wsw0091100 1.3 100635
20:00+9sse119848 2.9 100716
27 september, tue
tue2723:00+10ese129973 0.3 1006126
02:00+10se129794 0.3 100451
05:00+10sse1297100 0.0 100362
08:00+10e1299100 2.8 1002102
11:00+10e1197100 3.7 1003221
14:00+11ene129460 3.9 1002362
17:00+9ene2797100 2.2 1004512
20:00+8e2499100 2.8 1006246
28 september, wed
wed2823:00+8se3797100 0.1 1006365
02:00+7se279996 0.3 1006341
05:00+6ne119997 0.5 100562
08:00+7e1299100 0.6 1005195
11:00+8ese1298100 0.1 1005282
14:00+12ene1390100 0.2 1002434
17:00+12nw1294100 0.3 1001167
20:00+10se1198100 0.3 100214
29 september, thu
thu2923:00+10ese0299100 1.6 1002118
02:00+10nne11100100 11.3 1002155
05:00+10ne11100100 2.6 1002194
08:00+10nne12100100 8.8 1002305
11:00+8e2798100 7.9 1006539
14:00+8ene1597100 8.8 1006494
17:00+8ene1299100 2.3 1007341
20:00+8ene11100100 3.0 1008217